Weather History for Barksdale AFB, LA

Change the Weather History Date:

Saturday, July 6, 2013

  Actual Average Record
Temperature  
Mean Temperature 78 °F -  
Max Temperature 90 °F 89 °F 100 °F (1998)
Min Temperature 67 °F 71 °F 66 °F (1997)
Cooling Degree Days 13    
Growing Degree Days 28 (Base 50)    
Moisture  
Dew Point 67 °F    
Average Humidity 72    
Maximum Humidity 100    
Minimum Humidity 42    
Precipitation  
Precipitation 0.00 in - - ()
Sea Level Pressure  
Sea Level Pressure 29.98 in    
Wind  
Wind Speed 5 mph (ESE)    
Max Wind Speed 9 mph    
Max Gust Speed 17 mph    
Visibility 10 miles    
Events      
Averages and records for this station are not official NWS values.
T = Trace of Precipitation, MM = Missing Value Source: NWS Daily Summary

Daily Weather History Graph

Daily Weather History Graph

Search for Another Location

Airport:

Trip Planner

Search our weather history database for the weather conditions in past years. The results will help you decide how hot, cold, wet, or windy it might be!

Date:

Astronomy

Jul. 06, 2013 Rise Set
Actual Time 6:13 AM CDT 8:25 PM CDT
Civil Twilight 5:45 AM CDT 8:53 PM CDT
Nautical Twilight 5:10 AM CDT 9:28 PM CDT
Astronomical Twilight 4:33 AM CDT 10:05 PM CDT
Moon 4:57 AM CDT (7/6) 7:10 PM CDT (7/6)
Length of Visible Light 15h 08m
Length of Day
14h 12m
Waning Crescent, 2% of the Moon is Illuminated
Jul 6
Waning Crescent
Jul 8
New
Jul 15
First Quarter
Jul 22
Full
Jul 29
Last Quarter

Hourly Weather History & Observations

Time (CDT) Temp. Heat Index Dew Point Humidity Pressure Visibility Wind Dir Wind Speed Gust Speed Precip Events Conditions
12:58 AM 70.3 °F - 63.3 °F 78% 29.97 in 10.0 mi ESE 3.5 mph - N/A   Clear
1:58 AM 68.2 °F - 64.6 °F 88% 29.98 in 10.0 mi SE 4.6 mph - N/A   Clear
2:58 AM 68.4 °F - 66.4 °F 93% 29.98 in 10.0 mi SSE 4.6 mph - N/A   Clear
3:58 AM 68.2 °F - 67.1 °F 96% 29.98 in 10.0 mi SE 3.5 mph - N/A   Clear
4:58 AM 67.5 °F - 66.4 °F 96% 29.99 in 10.0 mi SE 5.8 mph - N/A   Clear
5:28 AM 68.0 °F - 68.0 °F 100% 29.98 in 10.0 mi ESE 4.6 mph - N/A   Mostly Cloudy
5:58 AM 68.7 °F - 68.2 °F 98% 30.00 in 10.0 mi SE 3.5 mph - N/A   Overcast
6:28 AM 68.0 °F - 68.0 °F 100% 29.99 in 8.0 mi SSE 3.5 mph - N/A   Scattered Clouds
6:58 AM 68.4 °F - 68.4 °F 100% 30.00 in 8.0 mi SE 3.5 mph - N/A   Clear
7:58 AM 72.9 °F - 71.6 °F 96% 30.00 in 10.0 mi SE 3.5 mph - N/A   Clear
8:58 AM 76.8 °F - 70.3 °F 80% 30.02 in 10.0 mi SSE 2.3 mph - N/A   Clear
9:58 AM 81.0 °F 84.6 °F 70.3 °F 70% 30.02 in 10.0 mi Variable 1.2 mph - N/A   Partly Cloudy
10:58 AM 83.1 °F 86.6 °F 69.1 °F 62% 30.01 in 10.0 mi Variable 4.6 mph - N/A   Partly Cloudy
11:58 AM 85.1 °F 88.8 °F 68.7 °F 58% 30.00 in 10.0 mi Variable 5.8 mph - N/A   Partly Cloudy
12:58 PM 88.3 °F 90.9 °F 66.4 °F 48% 29.98 in 10.0 mi Variable 4.6 mph - N/A   Clear
1:58 PM 89.1 °F 91.7 °F 66.4 °F 47% 29.97 in 10.0 mi East 6.9 mph - N/A   Partly Cloudy
2:58 PM 89.4 °F 90.5 °F 63.7 °F 42% 29.96 in 10.0 mi ESE 6.9 mph 17.3 mph N/A   Clear
3:58 PM 88.3 °F 90.9 °F 66.6 °F 48% 29.94 in 10.0 mi ESE 8.1 mph - N/A   Scattered Clouds
4:58 PM 88.7 °F 91.9 °F 67.3 °F 49% 29.93 in 10.0 mi ESE 8.1 mph - N/A   Partly Cloudy
5:58 PM 88.9 °F 91.4 °F 66.4 °F 47% 29.92 in 10.0 mi SE 8.1 mph - N/A   Clear
6:58 PM 87.1 °F 89.2 °F 66.0 °F 49% 29.92 in 10.0 mi East 9.2 mph - N/A   Partly Cloudy
7:58 PM 84.0 °F 86.8 °F 67.1 °F 57% 29.95 in 10.0 mi East 4.6 mph - N/A   Clear
8:58 PM 80.4 °F 82.8 °F 67.3 °F 64% 29.95 in 10.0 mi East 5.8 mph - N/A   Clear
9:58 PM 79.0 °F - 67.8 °F 69% 29.97 in 10.0 mi East 5.8 mph - N/A   Clear
10:58 PM 77.4 °F - 68.0 °F 73% 29.98 in 10.0 mi ESE 6.9 mph - N/A   Clear
11:58 PM 77.0 °F - 68.0 °F 74% 29.99 in 10.0 mi ESE 5.8 mph - N/A   Partly Cloudy